sat.trackr.live / text

‹ back to catalog

ONEWEB-0020

NORAD 45133 · 2020-008C

PAYLOAD ACTIVE UNKNOWN

§ Identity

Operator
Country
UK
Launch date
2020-02-06
Launch site
TYMSC
Launch vehicle
Mass (kg)
RCS (m²)

Purposes: comms

External: N2YO · Heavens-Above · Gunter

§ Orbital elements

Epoch: 2026-09-20T00:49:23.462112Z

Period
109.89 min
Inclination
87.8898°
Eccentricity
0.0001754
Mean motion
13.10370450 rev/d
Perigee alt
1,220.4 km
Apogee alt
1,223.1 km
Semi-major
7,599.9 km
B*
-1.5118e-3
RAAN
17.3881°
Arg perigee
101.8811°
Mean anomaly
258.2513°
Rev number
32,076

§ Raw data

ONEWEB-00201 45133U 20008C   26263.03429933 -.00000515  00000+0 -15118-2 0  99982 45133  87.8898  17.3881 0001754 101.8811 258.2513 13.10370450320769

JSON: /api/v1/satellites/45133 · /tle

For live sub-satellite position, see the globe view (requires WebGL).

§ Visibility from observer

Set your observer location to see the next 7 days of passes ≥ 10°. The values pass through the URL so the page stays shareable.

No JS? Fill the form by hand. The geolocation button needs JavaScript.